OpenBCM V1.08-3-g9b42 (Linux)

Packet Radio Mailbox

OK0NBR

[Sao_Jose_dos_Campo]

 Login: GUEST





  
I0OJJ  > KEPS     22.11.25 22:03l 308 Lines 14709 Bytes #265 (0) @ AMSAT
BID : ORB25327.1
Read: GUEST
Subj: 2Line Orbital Elements 25327.AMSAT
Path: OK0NBR<IW0QNL<HB9ON<DK0WUE<PI8ZTM<CX2SA<EA2RCF<I0OJJ
Sent: 251123/0021z @:I0OJJ.ITA.EU [Rome] obcm1.08-11-2-gbfe9
From: I0OJJ @ I0OJJ.ITA.EU (Gustavo)
To:   KEPS @ AMSAT
X-Info: This message was generated automatically


QST de W1STR

AMSAT Orbital Elements for Amateur Satellites in TLE Format
From Orbital Analysis Office
New England Sci-Tech STEM Education Center
Natick MA November 23, 2025
To all radio amateurs


These element sets describe the orbits of various satellites 
in use by the amateur radio community. For details see:
www.amsat.org/keplerian-elements-formats/

A daily update of element sets is available at:
www.amsat.org/tle/daily-bulletin.txt
or without bulletin text:
www.amsat.org/tle/dailytle.txt


AO-07
1 07530U 74089B   25326.63800601 -.00000044  00000-0  14711-4 0  9992
2 07530 101.9972 332.6939 0012257 164.4366 310.8972 12.53693608334630
UO-11
1 14781U 84021B   25326.78223943  .00002039  00000-0  21681-3 0  9997
2 14781  97.7786 290.1252 0008652 137.2471 222.9421 14.90042799226382
AO-27
1 22825U 93061C   25326.71973269  .00000148  00000-0  73527-4 0  9991
2 22825  98.7173  28.9370 0008136 353.8336   6.2745 14.30866082677477
FO-29
1 24278U 96046B   25326.66242235 -.00000010  00000-0  28863-4 0  9999
2 24278  98.5476 198.4900 0348839 272.1872  83.9369 13.53261175445239
GO-32
1 25397U 98043D   25326.47599547  .00000095  00000-0  61023-4 0  9998
2 25397  98.9902 309.2221 0002334  90.2543 269.8902 14.24368810421908
ISS
1 25544U 98067A   25326.28671477  .00015903  00000-0  29634-3 0  9995
2 25544  51.6321 243.7129 0003928 154.7163 205.4019 15.48986583539686
NO-44
1 26931U 01043C   25326.68903992  .00000233  00000-0  11808-3 0  9992
2 26931  67.0518  58.3294 0007322 271.0626  88.9637 14.31838672260887
SO-50
1 27607U 02058C   25326.56595878  .00001756  00000-0  22832-3 0  9997
2 27607  64.5550  47.9445 0071056 300.3298  59.0792 14.82274575233821
CO-55
1 27844U 03031E   25326.56697250  .00000391  00000-0  18852-3 0  9990
2 27844  98.6768 332.7300 0010640  68.4870 291.7442 14.24154474162265
CO-57
1 27848U 03031J   25326.45342211  .00000330  00000-0  16444-3 0  9994
2 27848  98.6797 332.4961 0010629  84.7851 275.4540 14.23466170161960
RS-22
1 27939U 03042A   25326.88796293  .00001442  00000-0  23327-3 0  9990
2 27939  98.3366 140.5615 0010932 197.6673 298.8487 14.72886039185179
CO-58
1 28895U 05043F   25326.38663861  .00002373  00000-0  38766-3 0  9991
2 28895  98.2718 113.1237 0015078 138.6618 221.5732 14.71781613 71325
CO-65
1 32785U 08021C   25326.85008500  .00006117  00000-0  41576-3 0  9991
2 32785  97.8072 299.6641 0010280  22.3488 337.8185 15.06689133954099
CO-66
1 32791U 08021J   25326.49377314  .00017572  00000-0  72094-3 0  9996
2 32791  97.7434 310.9593 0002811   4.8323 355.2940 15.24302831955714
RS-30
1 32953U 08025A   25326.83238859  .00000026  00000-0  11318-3 0  9996
2 32953  82.4998 123.8048 0019635  44.0516 316.2124 12.43171197794054
SRMSAT
1 37841U 11058D   25326.03661332  .00000449  00000-0  10020-3 0  9993
2 37841  19.9713 233.2573 0011860  85.4929  39.9357 14.11501545728519
ZACUBE-1
1 39417U 13066B   25326.83188830  .00005958  00000-0  49100-3 0  9991
2 39417  97.8028 283.3517 0040715 212.8694 146.9996 14.98786450649799
Delfi-N3xt
1 39428U 13066N   25326.75028714  .00006083  00000-0  57863-3 0  9993
2 39428  97.8334 242.7786 0079664 170.8387 189.4307 14.91409051643812
GOMX-1
1 39430U 13066Q   25326.86958127  .00002010  00000-0  31225-3 0  9998
2 39430  97.6606 175.2375 0131344  20.3675 340.2700 14.68450328639627
LO-74
1 39440U 13066AA  25326.81820281  .00005386  00000-0  52339-3 0  9991
2 39440  97.8687 270.5228 0060137 352.8898   7.1460 14.91653289646207
AO-73
1 39444U 13066AE  25326.78480730  .00008741  00000-0  60180-3 0  9993
2 39444  97.8044 289.8282 0038816 182.1534 177.9531 15.05502487648566
DTUSAT-2
1 40030U 14033W   25326.87549756  .00007983  00000-0  47815-3 0  9992
2 40030  98.0747 307.2329 0007072 205.7983 154.2894 15.11275549621484
EO-80
1 40032U 14033Y   25326.48986200  .00009229  00000-0  55097-3 0  9996
2 40032  98.0627 306.2479 0008668 146.2773 213.9008 15.11333925621401
LILACSAT-2
1 40908U 15049K   25326.84358910  .00014699  00000-0  32506-3 0  9994
2 40908  97.4931 351.6240 0006307 286.1831  73.8723 15.43910564563835
IO-86
1 40931U 15052B   25151.18580175  .00001241  00000-0  78118-4 0  9996
2 40931   6.0006  24.0987 0012733 338.8432  21.1169 14.78805930523159
Horyu-4
1 41340U 16012D   25326.71314425  .00043886  00000-0  79715-3 0  9998
2 41340  30.9941  87.2237 0005780  34.5664 325.5360 15.48277194538443
Lapan A3
1 41603U 16040E   25326.89659959  .00004090  00000-0  13736-3 0  9999
2 41603  97.1425 325.1785 0012028  42.9151 317.3027 15.31329054523220
CAS-2T
1 41847U 16066G   25326.73819633  .00001117  00000-0  16567-3 0  9999
2 41847  98.4057  39.6734 0344722  35.7354 326.6385 14.44065853474996
TechnoSat
1 42829U 17042E   25326.36023759  .00003840  00000-0  28711-3 0  9999
2 42829  97.4030 127.4525 0020002  80.0239 280.3243 15.03183364455619
AO-91
1 43017U 17073E   25326.61272588  .00010918  00000-0  52277-3 0  9995
2 43017  97.4962 193.2723 0161757 320.1414  38.8023 15.08232343434201
S-Net D
1 43186U 18014G   25326.73028775  .00006398  00000-0  35569-3 0  9990
2 43186  97.5489 227.9844 0009669  24.5339 335.6350 15.13993436427493
S-Net B
1 43187U 18014H   25326.73802866  .00006611  00000-0  36765-3 0  9999
2 43187  97.5492 227.9718 0010127  19.1602 341.0008 15.13968821427493
S-Net A
1 43188U 18014J   25326.66398728  .00006441  00000-0  35799-3 0  9996
2 43188  97.5502 228.0715 0010060  20.6499 339.5137 15.13998257427482
S-Net C
1 43189U 18014K   25326.67483669  .00006812  00000-0  37866-3 0  9996
2 43189  97.5517 228.1240 0011318  11.6266 348.5225 15.13962281426038
Ten-Koh
1 43677U 18084G   25326.38895853  .00004360  00000-0  34080-3 0  9996
2 43677  98.0699 145.1927 0009265  81.2180 279.0092 15.01616846385116
PO-101
1 43678U 18084H   25326.83137604  .00002296  00000-0  19326-3 0  9992
2 43678  98.1034 149.4954 0007330  94.8154 265.3905 14.99291909385284
QO-100
1 43700U 18090A   25326.73428191  .00000166  00000-0  00000+0 0  9997
2 43700   0.0133  11.0661 0002465 270.9180  70.1445  1.00273854 25606
MinXSS-2
1 43758U 18099A   25326.72649615  .00022472  00000-0  70212-3 0  9994
2 43758  97.4825  33.8393 0008918 289.8025  70.2255 15.33147860382353
AO-95
1 43770U 18099N   25326.66873139  .00011115  00000-0  50028-3 0  9996
2 43770  97.4698  23.1082 0009581   2.7765 357.3522 15.21218402381760
SNUSat 2
1 43782U 18099AA  25326.68552728  .00008986  00000-0  44763-3 0  9990
2 43782  97.4382  18.4405 0009825 301.7473  58.2803 15.17757607381666
SnugLite
1 43784U 18099AC  25326.66092072  .00011178  00000-0  49809-3 0  9994
2 43784  97.4187  18.3947 0001857 316.7537  43.3553 15.21596275381850
ITASat 1
1 43786U 18099AE  25326.63030323  .00008299  00000-0  43893-3 0  9991
2 43786  97.4351  17.3652 0013356 358.5408   1.5783 15.15635876381580
EAGLET 1
1 43790U 18099AJ  25326.63870897  .00005134  00000-0  31221-3 0  9991
2 43790  97.4548  16.6947 0011110 346.3230  13.7698 15.10828596381124
ESEO
1 43792U 18099AL  25326.71468574  .00001808  00000-0  13718-3 0  9992
2 43792  97.4276   7.7154 0010766 325.8284  34.2248 15.03376044380779
JO-97
1 43803U 18099AX  25326.62405522  .00015842  00000-0  61890-3 0  9996
2 43803  97.4451  24.5174 0005258 285.9639  74.1019 15.25952862382049
Suomi 100
1 43804U 18099AY  25326.68113130  .00011779  00000-0  50910-3 0  9990
2 43804  97.4506  23.3059 0009817 290.6975  69.3208 15.22586140381933
ISAT
1 43879U 18111D   25326.73400394  .00034454  00000-0  86676-3 0  9997
2 43879  97.5903 245.6646 0006468 358.1246   1.9973 15.39844888379165
UWE-4
1 43880U 18111E   25326.73399243  .00023956  00000-0  74950-3 0  9996
2 43880  97.5849 242.7263 0010377   0.4114 359.7134 15.33079106379018
Sparrow
1 43881U 18111F   25326.74651553  .00037922  00000-0  89077-3 0  9997
2 43881  97.6086 249.3147 0007330  34.6155 325.5568 15.41898331379285
Prox-1
1 44339U 19036A   25326.47920684  .00014494  00000-0  16494-2 0  9998
2 44339  23.9973  48.8720 0007113 161.4803 198.5954 14.84441498342650
Taurus 1
1 44530U 19059C   25326.81253197  .00008037  00000-0  13882-2 0  9996
2 44530  98.6228 114.5762 0008997 235.6640 124.3713 14.68679769328319
Duchifat 3
1 44854U 19089C   25325.53542106  .00425523  00000-0  16231-2 0  9991
2 44854  36.9307   8.3768 0009005 133.1531 226.9992 15.85429396328754
TO-108
1 44881U 19093C   25326.83730947  .00001111  00000-0  13289-3 0  9996
2 44881  97.7781  38.9124 0014727  49.7287 310.5213 14.86036613320762
FloripaSat 1
1 44885U 19093G   25326.84556773  .00006553  00000-0  51877-3 0  9994
2 44885  97.8064  54.9487 0011993  37.5942 322.6118 15.00884697321664
RS-44
1 44909U 19096E   25326.76521200 -.00000001  00000-0 -41064-4 0  9994
2 44909  82.5190 116.8823 0216544 266.9766  90.6538 12.79745467275946
SALSAT
1 46495U 20068K   25326.53291501  .00008975  00000-0  35336-3 0  9990
2 46495  97.8771 312.7243 0009187 314.5208  45.5277 15.25837335283802
CSS (TIANHE-1)
1 48274U 21035A   25326.72330786  .00018705  00000-0  23296-3 0  9996
2 48274  41.4656 138.1313 0007797 219.2110 140.8164 15.59449506260908
TUBIN
1 48900U 21059X   25326.73966169  .00319165  41227-4  91130-3 0  9995
2 48900  97.6626 152.2456 0002462 327.9368  32.1755 15.93238065246126
CUTE
1 49263U 21088D   25326.79753924  .00022874  00000-0  31832-3 0  9990
2 49263  97.4370  48.7777 0005102 355.1306   4.9899 15.56960202230197
TeikyoSat 4
1 49396U 21102B   25326.63683059  .00002763  00000-0  18085-3 0  9998
2 49396  97.3920 358.9908 0010693 286.1743  73.8309 15.08510553221575
Z-Sat
1 49399U 21102E   25326.84741720  .00005236  00000-0  27393-3 0  9994
2 49399  97.3604   3.3904 0015815 244.5009 115.4588 15.16162691222150
